Theta_e
321 321 321 320 319 319 324 323 324 327 329 333 333 334 335 340 340 333 338 349 348 348 348 349 349 351 352 349 347 349 347 342 335 338 339 337 335 335 334 334 334 333 333
322 320 318 320 320 321 318 319 322 323 323 325 330 329 332 332 338 340 336 347 352 351 350 349 351 351 351 350 345 349 345 342 339 334 338 336 336 335 334 334 333 331 332
318 316 315 314 313 315 314 313 315 317 320 322 324 328 329 332 335 339 339 339 349 352 352 353 352 350 349 348 349 348 344 342 340 336 337 337 336 335 333 332 332 331 330
316 315 315 314 313 313 313 312 312 312 313 319 321 324 328 330 330 334 340 339 341 352 353 353 351 350 349 348 349 346 343 341 337 336 336 336 335 334 334 334 332 331 329
316 315 315 314 314 314 313 313 312 312 311 313 319 320 323 327 330 332 338 339 341 345 351 353 351 350 350 348 350 344 342 338 337 335 335 334 334 334 335 333 331 331 329
316 316 315 315 315 314 314 313 313 312 313 314 317 317 319 324 328 330 331 337 341 346 351 351 350 350 350 349 349 346 343 338 336 335 333 331 333 334 333 332 331 330 329
316 318 317 316 316 315 314 314 313 313 314 315 314 316 319 322 326 328 330 337 339 344 350 349 349 349 346 349 346 344 340 338 336 336 335 334 333 333 333 332 331 330 328
315 316 317 317 316 316 315 313 312 313 313 312 312 312 315 322 326 328 331 334 337 342 348 347 349 345 347 345 343 339 338 337 336 335 334 333 333 332 332 331 331 330 328
317 317 316 316 316 315 313 312 312 312 312 311 310 310 312 318 324 325 327 333 335 341 344 345 345 344 344 343 340 335 333 334 334 333 333 332 332 332 331 332 331 329 328
312 313 313 314 314 313 312 312 312 312 311 311 312 314 317 320 325 328 331 334 336 341 343 344 341 344 341 339 337 335 333 332 332 331 331 331 330 329 328 331 331 329 328
312 312 312 312 312 311 311 311 312 311 311 310 311 313 318 323 325 327 330 336 337 341 343 341 343 342 339 337 336 334 333 332 331 330 329 328 327 326 327 329 329 329 328
309 310 311 311 310 311 311 311 311 311 311 311 312 314 318 322 324 326 328 336 339 341 342 340 340 339 338 335 336 335 334 333 331 329 328 328 327 326 327 328 328 328 328
308 308 308 309 309 310 310 311 312 312 313 314 316 319 321 322 323 326 331 337 339 341 341 342 339 338 335 333 334 334 333 332 330 328 327 327 327 326 326 327 327 327 327
307 308 309 310 310 310 311 313 314 314 315 317 318 319 321 322 325 330 334 333 340 340 339 338 336 334 333 332 332 331 331 330 328 326 325 325 324 326 326 327 327 327 326
308 308 309 310 311 311 311 312 314 315 315 316 317 319 320 322 328 330 330 332 333 334 331 329 329 329 326 328 328 328 328 326 326 325 325 324 324 323 324 325 326 326 326
307 308 309 311 311 311 312 313 314 316 316 317 317 318 321 323 331 331 335 337 335 331 328 327 325 324 325 325 325 326 327 327 326 326 326 325 324 323 323 324 325 326 326
308 309 310 311 312 313 312 313 313 314 316 317 318 320 321 323 332 332 336 331 329 330 327 326 326 325 325 325 325 326 327 326 326 327 326 325 324 323 323 324 325 326 326
308 309 310 312 316 316 314 315 315 318 317 313 318 319 320 322 334 333 329 329 328 327 326 325 325 325 325 325 325 326 327 327 327 327 326 325 325 324 323 324 325 325 325
310 314 319 324 319 320 318 317 319 321 322 312 319 320 330 332 331 330 329 329 327 325 324 324 325 326 325 325 327 327 328 327 327 326 326 325 324 325 324 324 324 325 326
313 315 322 325 327 327 326 324 323 320 323 325 323 317 317 325 327 327 328 328 327 326 325 325 325 326 326 328 328 328 328 327 326 325 325 325 324 323 323 323 324 325 324
311 316 328 330 330 327 327 325 326 325 324 324 323 325 327 328 328 327 328 327 327 326 326 325 325 326 328 327 328 326 326 326 325 324 325 325 324 324 324 324 324 324 324
308 317 330 332 331 330 327 325 324 325 325 324 324 328 328 327 326 327 328 327 326 326 325 325 325 326 327 327 327 326 326 325 324 325 325 324 324 324 324 323 324 323 324
308 317 330 330 329 327 326 325 325 325 326 326 326 325 324 323 323 323 325 326 326 326 325 325 326 326 327 327 327 326 326 325 325 325 325 324 324 324 323 323 324 323 324
310 326 330 331 328 327 327 325 325 326 326 324 321 319 317 316 317 319 322 325 326 326 326 327 327 327 327 327 326 326 325 325 325 325 324 324 324 325 324 323 322 322 321
315 329 330 329 327 327 326 327 325 322 320 317 314 312 311 312 314 316 320 321 321 322 323 323 324 325 325 325 325 325 324 324 324 324 324 325 324 321 319 317 316 314 313
329 330 329 327 327 326 323 320 317 314 312 310 308 307 307 308 308 311 313 315 317 317 318 320 321 322 323 323 323 323 323 323 323 323 322 320 319 316 313 312 310 309 307
Wind_Speed
27 23 20 16 15 14 13 14 17 17 17 18 19 22 24 29 30 27 28 34 34 35 33 31 33 32 32 34 35 31 28 18 5 4 6 18 19 17 14 12 12 11 8
19 16 11 8 10 12 11 11 14 18 21 21 24 26 27 30 29 31 28 27 32 33 34 33 36 32 32 30 28 31 27 22 13 7 13 17 15 14 11 10 11 12 11
19 16 15 12 11 11 13 17 19 23 26 26 27 27 27 27 29 32 30 29 31 31 32 34 37 29 29 27 30 30 27 20 17 14 10 15 12 14 12 10 9 9 7
21 22 21 20 18 14 14 18 23 27 31 31 29 29 28 28 29 30 30 31 32 33 34 37 33 31 31 31 32 32 26 18 16 17 13 16 15 15 13 12 10 10 6
25 26 23 21 20 18 18 20 23 26 28 32 33 33 32 30 28 29 31 33 34 34 35 37 35 35 35 35 33 29 22 16 17 14 10 9 12 13 18 12 12 9 7
26 27 27 26 24 23 23 23 25 26 27 29 30 33 35 33 33 34 37 37 35 31 32 35 34 35 35 34 32 28 27 22 17 12 10 9 15 18 17 15 12 7 3
15 17 23 25 27 27 27 27 26 25 25 28 32 32 35 36 38 38 40 42 37 35 35 33 33 34 34 32 27 22 21 21 20 21 18 14 15 19 17 16 18 13 8
23 23 22 25 29 30 28 28 24 23 26 29 30 33 35 35 36 37 39 41 43 38 40 35 35 33 34 33 27 22 22 18 16 14 14 12 11 11 17 20 20 17 9
25 25 26 28 29 26 23 21 23 24 28 29 29 34 36 36 37 41 41 41 37 37 39 34 34 32 34 31 30 25 19 17 13 11 11 11 11 10 12 15 15 17 4
27 29 32 33 33 25 22 24 27 28 32 30 29 31 34 36 39 41 40 38 32 32 35 32 31 34 33 32 29 26 22 19 18 15 13 11 10 10 10 14 16 17 7
24 21 17 13 16 19 23 26 28 30 30 31 32 33 32 32 37 38 39 41 32 30 27 26 31 32 33 28 24 24 23 20 17 15 11 8 7 7 8 9 10 18 13
28 26 26 27 27 24 28 30 29 29 27 28 31 31 31 33 37 40 41 41 41 32 27 32 35 32 31 28 21 23 20 21 19 15 14 11 9 7 8 9 8 8 9
28 26 27 28 31 32 31 31 27 27 26 26 25 24 26 28 31 34 39 39 40 34 36 37 33 30 33 27 22 20 22 23 19 16 14 11 10 8 8 8 5 6 6
27 25 24 24 25 29 30 28 26 26 24 23 21 22 21 24 25 29 30 30 39 36 36 34 33 34 29 26 24 22 20 19 17 15 14 10 9 10 9 8 5 5 3
28 26 26 26 27 29 32 31 28 31 29 25 25 23 21 21 23 27 30 30 34 43 43 37 33 31 26 26 25 20 17 16 15 14 15 14 10 8 9 9 8 6 4
26 24 26 29 31 31 28 26 28 32 29 33 37 36 30 34 25 35 42 31 38 47 35 28 23 23 22 21 22 20 19 17 16 15 16 14 12 12 10 9 8 7 9
25 30 31 36 31 30 29 26 12 20 31 38 38 42 45 30 40 46 48 54 45 40 30 23 23 22 21 19 21 23 19 18 17 17 17 16 13 11 11 9 10 10 9
31 37 37 39 32 33 35 30 27 18 8 11 34 36 38 47 53 50 54 45 28 26 27 25 23 24 23 21 23 23 20 19 17 17 17 16 14 12 11 5 6 6 5
33 30 25 11 7 17 26 30 27 20 16 17 22 31 36 51 57 54 38 30 26 22 24 25 26 24 23 24 22 21 20 19 17 14 12 13 13 10 8 7 4 3 6
29 34 19 15 16 18 20 24 18 18 20 23 25 27 35 43 33 26 27 29 25 25 27 27 25 24 20 23 23 22 22 19 17 15 14 14 12 11 9 8 5 4 4
24 25 24 26 22 21 22 20 18 21 21 28 27 29 32 28 26 25 26 27 28 28 27 26 24 24 19 22 22 22 22 21 19 17 16 14 12 12 8 7 6 4 2
21 23 14 15 23 23 23 25 24 25 26 26 27 34 30 28 27 26 26 25 27 25 24 24 22 21 19 22 22 21 21 18 16 14 13 13 12 10 8 6 6 4 4
21 18 12 20 24 31 28 25 27 29 28 27 25 25 25 25 26 28 32 31 29 25 23 21 20 19 17 18 19 20 18 17 15 15 14 13 10 8 7 6 7 6 6
15 9 15 19 24 26 27 27 29 29 25 24 26 25 26 26 30 33 34 33 31 28 25 22 24 23 19 18 16 17 16 15 15 13 15 14 14 12 14 12 9 7 7
5 10 16 20 23 24 29 28 26 28 27 26 26 26 27 32 33 33 33 34 33 32 32 30 28 27 26 24 24 24 20 19 19 18 17 16 16 14 14 15 14 13 13
6 15 21 21 21 25 26 27 26 27 26 25 25 25 29 33 32 32 31 32 33 31 31 29 26 25 26 25 23 21 19 17 16 15 16 16 17 18 19 20 19 20 18
Wind_Direction
213 223 232 246 265 273 272 267 276 282 287 285 284 283 283 283 274 269 260 247 234 237 236 235 238 236 234 244 245 244 235 208 172 211 158 168 170 182 184 207 226 243 238
199 197 214 233 265 266 281 292 296 282 280 278 277 280 282 280 284 274 266 247 234 228 235 236 241 236 229 234 244 233 226 224 206 173 170 169 175 191 207 222 248 253 248
196 206 207 231 241 253 283 300 306 306 304 296 289 280 277 277 279 278 271 260 250 243 241 230 233 222 225 229 230 230 223 225 219 178 168 187 190 198 205 220 230 243 259
203 207 212 217 226 248 267 278 287 294 298 298 291 287 279 275 276 282 274 260 252 245 242 237 228 221 227 227 223 223 220 204 190 173 172 180 190 197 207 208 212 232 251
208 210 206 207 218 227 243 256 269 278 285 285 287 285 283 278 276 275 275 265 251 248 244 234 225 231 234 232 217 206 199 190 190 178 162 160 174 178 198 210 220 232 223
224 215 215 221 229 233 237 246 258 265 272 278 279 283 283 278 271 271 273 268 252 242 235 233 229 229 226 227 219 218 213 199 196 175 179 172 195 202 204 207 204 191 212
295 259 233 230 229 231 240 244 247 254 261 264 273 281 277 272 269 272 275 277 264 243 231 230 223 221 222 207 203 210 214 213 218 210 189 195 206 215 210 201 212 204 197
266 262 260 251 241 238 235 237 249 255 257 263 270 275 275 277 267 271 275 279 271 244 236 230 218 216 199 192 190 192 199 190 189 195 214 219 219 219 223 226 222 218 213
255 258 262 258 245 235 228 238 253 257 258 261 267 270 267 270 270 269 270 273 264 244 236 228 219 205 189 190 186 176 174 179 190 196 208 210 219 218 224 224 205 175 162
248 251 253 251 245 230 242 254 258 257 263 269 265 262 264 264 266 263 264 269 255 240 227 222 214 196 182 183 183 180 180 173 176 177 184 196 214 231 231 223 214 179 160
292 288 280 259 257 253 254 255 256 253 256 261 259 258 258 258 262 265 268 265 247 231 204 195 182 183 174 178 189 189 191 181 179 183 183 190 205 203 196 196 203 214 177
272 272 265 260 257 251 249 249 242 243 250 253 255 255 257 253 257 263 265 260 249 215 191 179 170 169 177 181 176 180 175 173 174 176 174 173 182 187 186 183 176 180 199
265 263 261 257 252 250 246 242 232 236 239 244 242 248 250 252 255 261 261 251 241 194 190 176 166 171 177 175 172 168 167 172 174 173 180 183 189 189 179 176 171 170 183
269 264 262 251 249 249 246 237 231 239 238 236 246 246 248 257 261 254 235 218 190 176 161 155 161 161 163 162 153 159 171 181 185 184 179 175 175 171 175 174 164 204 184
272 267 264 258 250 244 240 236 234 238 237 240 241 245 246 247 243 210 174 163 152 154 143 139 140 145 144 152 156 159 169 170 165 167 170 169 173 191 195 193 188 179 195
272 267 259 253 246 240 237 243 237 234 236 238 247 248 243 240 220 184 177 156 167 149 133 135 138 144 148 153 161 165 173 173 176 172 176 171 182 194 199 195 197 207 221
272 267 262 254 242 232 233 235 236 232 241 245 238 233 234 259 176 155 157 157 147 139 132 140 142 148 149 157 172 174 174 183 181 176 176 179 183 185 187 196 212 218 233
274 268 262 266 261 230 208 207 211 214 215 230 231 232 246 183 150 148 139 135 126 128 136 140 146 152 156 166 177 181 181 180 181 183 179 184 183 183 188 201 202 203 227
283 282 290 295 105 117 152 177 191 192 152 131 125 148 168 138 139 141 136 128 129 129 139 145 149 153 165 175 179 177 173 172 174 173 177 179 177 175 174 180 144 152 176
301 304 324 111 109 111 120 136 114 129 111 120 151 147 136 128 129 128 115 121 127 134 143 148 155 162 165 163 161 161 163 164 168 170 175 179 182 189 199 201 199 189 193
305 317 340 113 108 115 114 121 118 124 125 128 131 133 133 125 124 116 118 126 131 137 143 148 156 160 155 154 159 157 158 162 166 168 176 177 178 179 186 196 202 186 219
311 320 344 91 109 104 99 104 110 108 107 106 110 116 109 105 109 112 113 117 132 136 142 145 149 153 155 160 164 161 162 166 167 168 174 174 176 178 181 186 194 173 166
303 311 74 94 103 107 106 107 107 109 110 113 111 105 103 104 103 105 111 118 123 127 134 139 142 148 140 147 160 163 170 170 171 175 174 168 166 172 173 165 157 141 143
295 332 78 86 101 108 114 118 116 113 110 104 102 102 102 106 109 113 113 112 114 118 126 126 128 131 139 140 144 144 149 157 162 165 168 162 138 145 141 133 129 133 122
263 127 100 87 96 107 113 115 105 100 98 101 102 103 106 110 112 113 117 118 114 115 116 117 121 124 123 125 130 132 134 141 142 146 149 147 138 133 128 118 114 109 106
150 132 114 112 100 101 102 101 100 99 99 100 100 101 105 107 111 116 120 121 119 115 114 114 116 119 122 122 120 124 128 129 131 139 141 134 124 116 113 109 106 103 100